Regional Weather Roundup
Issued by NWS

Home | Current Version | Previous Version | Graphics & Text | Print | Product List | Glossary On
Versions: 1 2 3 4 5 6 7 8 9 10 11 12 13 14 15 16 17 18 19 20 21 22 23 24 25 26 27 28 29 30 31 32 33 34 35 36 37 38 39 40 41 42 43 44 45 46 47 48 49 50
311
ASUS45 KBOU 110807
RWRCO

WEATHER ROUNDUP FOR COLORADO
NATIONAL WEATHER SERVICE DENVER/BOULDER CO
100 AM MST THU FEB 11 2016

NOTE: "FAIR" INDICATES FEW OR NO CLOUDS BELOW 12000 FEET WITH NO
SIGNIFICANT WEATHER AND/OR OBSTRUCTIONS TO VISIBILITY.

COZ001>005-013-030-031-110900-
...NORTHWEST COLORADO...

CITY           SKY/WX    TMP DP  RH WIND       PRES   REMARKS
CRAIG          CLOUDY    -1  -5  82 CALM      30.39S
HAYDEN         CLOUDY    12   3  67 SE6       30.37R WCI   3
MEEKER         CLOUDY    14   8  77 CALM      30.38S
MOUNT WERNER   NOT AVBL
STEAMBOAT SPGS CLOUDY    15  12  85 CALM      30.38S
WALDEN         CLOUDY    18   7  62 SE9       30.36S WCI   6
$$

COZ006>008-011-110900-
...WEST CENTRAL VALLEYS...

CITY           SKY/WX    TMP DP  RH WIND       PRES   REMARKS
GRAND JUNCTION CLOUDY    27  22  81 E9        30.39F WCI  18
MONTROSE       CLOUDY    24  17  74 S10       30.42F WCI  14
EAGLE          CLOUDY    19  16  86 CALM      30.44S
RIFLE          CLOUDY    16  10  77 E5        30.42S WCI   9
DELTA          CLOUDY    29  24  81 NE6       30.43S WCI  23
NUCLA          CLOUDY    28  18  64 E7        30.41F WCI  21
$$

COZ017>023-064>068-110900-
...SOUTHWEST COLORADO...

CITY           SKY/WX    TMP DP  RH WIND       PRES   REMARKS
DURANGO        CLOUDY    21  16  81 N5        30.36S WCI  15
CORTEZ         CLOUDY    21  16  81 NE6       30.36F WCI  13
PAGOSA SPRINGS CLOUDY    22  19  85 CALM      30.38S
TELLURIDE      CLOUDY    28   4  36 SE6       30.44F WCI  22
WOLF CREEK PAS CLOUDY    27  -9  20 N10       30.51S WCI  17
$$

COZ009-010-012-014-032>034-037-058>063-110900-
...CENTRAL COLORADO...

CITY           SKY/WX    TMP DP  RH WIND       PRES   REMARKS
ASPEN          CLOUDY    16   8  71 SE6       30.39F WCI   7
BUENA VISTA    CLOUDY    34   8  34 NW9       30.33F WCI  26
COPPER MTN     CLOUDY    25   1  36 W12       30.45S WCI  14
BERTHOUD PASS  FAIR      18   5  57 NW31G38   30.39S WCI  -2
COTTONWOOD PAS CLOUDY    36   0  21 W12G24    30.36F
GUNNISON       CLOUDY    -8 -18  59 CALM      30.50S
KREMMLING      CLOUDY    -4  -8  84 CALM      30.44S
LEADVILLE      CLOUDY    16   0  49 NE9       30.39F WCI   4
MONARCH PASS   CLOUDY    23   1  39 MISG      30.53F
SALIDA         NOT AVBL
SUNLIGHT       CLOUDY    30   9  40 CALM        N/A
WILKERSON PASS CLOUDY    28   0  29 NW10      30.42S WCI  19
$$

COZ069>075-110900-
...SAN LUIS VALLEY/SANGRE DE CRISTO MOUNTAINS...

CITY           SKY/WX    TMP DP  RH WIND       PRES   REMARKS
ALAMOSA        CLOUDY    22  19  89 CALM      30.36S
LA VETA PASS   NOT AVBL
SAGUACHE       CLOUDY    28  14  54 NW13      30.37F WCI  18
$$

COZ035-036-038>040-110900-
...NORTHERN COLORADO FRONT RANGE...

CITY           SKY/WX    TMP DP  RH WIND       PRES   REMARKS
DENVER INTL AP CLOUDY    33  20  58 S5        30.19R WCI  29
DMNS CITY PARK   N/A     40  12  31 SE9       30.19S
AURORA         NOT AVBL
FRONT RANGE AP   N/A     32  21  64 S5        30.20S WCI  27
ERIE MUNI ARPT CLOUDY    32  21  63 CALM      30.19R
BOULDER MUN AP CLOUDY    50  12  22 W7        30.18S
CENTENNIAL     CLOUDY    37  15  40 S5        30.21R
BROOMFIELD     CLOUDY    50  10  20 W18G28    30.20R
FORT COLLINS   CLOUDY    30  18  59 S8        30.18F WCI  23
LONGMONT       CLOUDY    33  20  58 W3        30.21S
$$

COZ041-046-047-076>085-087-088-110900-
...PIKES PEAK/PALMER DIVIDE AND SOUTHERN FOOTHILLS...

CITY           SKY/WX    TMP DP  RH WIND       PRES   REMARKS
COLO. SPRINGS  CLOUDY    34  16  47 N9        30.23S WCI  27
A. F. ACADEMY  CLOUDY    35  11  37 E8        30.22S WCI  28
SCHRIEVER AFB  FAIR      39  12  32 NW7       30.23S
ELLICOTT       CLOUDY   N/A N/A N/A N8        30.21S
FALCON         NOT AVBL
FORT CARSON    CLOUDY    37  16  42 W2        30.20S
LIMON          CLOUDY    28  18  66 VRB6      30.21S WCI  22
MONUMENT HILL  CLOUDY    34   9  35 SW7       30.25S WCI  28
TRINIDAD       CLOUDY    40  10  29 S5        30.25R
$$

COZ042>045-048>051-090-091-110900-
...NORTHEAST COLORADO...

CITY           SKY/WX    TMP DP  RH WIND       PRES   REMARKS
GREELEY ARPT   CLOUDY    27  21  80 CALM      30.18F
AKRON          CLOUDY    39  21  48 NW10      30.16F
BURLINGTON     CLOUDY    33  23  66 NW10      30.16S WCI  25
WRAY           NOT AVBL
STERLING       CLOUDY    36  27  69 NW7       30.14S
HOLYOKE        CLOUDY    39  28  65 W6        30.14F
FORT MORGAN    CLOUDY    37  20  50 N17       30.16F
$$

COZ086-089-092>099-110900-
...SOUTHEAST COLORADO...

CITY           SKY/WX    TMP DP  RH WIND       PRES   REMARKS
PUEBLO         CLOUDY    34  22  61 NE3       30.20S
LA JUNTA       CLOUDY    38  24  57 SW3       30.20S
LAMAR          CLOUDY    33  23  66 SW6       30.17R WCI  28
SPRINGFIELD      N/A     36  22  56 W9        30.18R
$$




USA.gov is the U.S. government's official web portal to all federal, state and local government web resources and services.